Time,TemperatureF,DewpointF,PressureIn,WindDirection,WindDirectionDegrees,WindSpeedMPH,WindSpeedGustMPH,Humidity,HourlyPrecipIn,Conditions,Clouds,dailyrainin,SoftwareType,DateUTC
2013-08-01 00:01:00,82.6,72.2,29.92,North,9,0.0,0.0,71,0.00,,BKN036,0.05,VWS V14.01,2013-08-01 05:01:00,
2013-08-01 00:21:00,82.6,72.2,29.92,North,9,0.0,0.0,71,0.00,,BKN036,0.00,VWS V14.01,2013-08-01 05:21:00,
2013-08-01 00:26:00,82.6,72.2,29.92,North,9,0.0,0.0,71,0.00,,BKN036,0.00,VWS V14.01,2013-08-01 05:26:00,
2013-08-01 00:31:00,82.6,72.2,29.92,North,9,0.0,0.0,71,0.00,,BKN036,0.00,VWS V14.01,2013-08-01 05:31:00,
2013-08-01 00:36:00,82.6,72.2,29.92,North,9,0.0,0.0,71,0.00,,OVC047,0.00,VWS V14.01,2013-08-01 05:36:00,
2013-08-01 00:41:00,82.6,72.2,29.92,North,9,0.0,0.0,71,0.00,,OVC047,0.00,VWS V14.01,2013-08-01 05:41:00,
2013-08-01 00:51:00,82.6,72.2,29.92,North,9,0.0,0.0,71,0.00,,OVC047,0.00,VWS V14.01,2013-08-01 05:51:00,
2013-08-01 00:56:00,82.6,72.2,29.92,North,9,0.0,0.0,71,0.00,,OVC047,0.00,VWS V14.01,2013-08-01 05:56:00,
2013-08-01 01:06:00,82.6,72.2,29.92,North,9,0.0,0.0,71,0.00,,OVC047,0.00,VWS V14.01,2013-08-01 06:06:00,
2013-08-01 01:11:00,82.6,72.2,29.92,North,9,0.0,0.0,71,0.00,,OVC047,0.00,VWS V14.01,2013-08-01 06:11:00,
2013-08-01 01:21:00,82.6,72.2,29.92,North,9,0.0,0.0,71,0.00,,OVC047,0.00,VWS V14.01,2013-08-01 06:21:00,
2013-08-01 01:26:00,82.6,72.2,29.92,North,9,0.0,0.0,71,0.00,,OVC047,0.00,VWS V14.01,2013-08-01 06:26:00,
2013-08-01 01:31:00,82.6,72.2,29.92,North,9,0.0,0.0,71,0.00,,OVC047,0.00,VWS V14.01,2013-08-01 06:31:00,
2013-08-01 01:41:00,82.6,72.2,29.92,North,9,0.0,0.0,71,0.00,,CLR,0.00,VWS V14.01,2013-08-01 06:41:00,
2013-08-01 01:46:00,82.6,72.2,29.92,North,9,0.0,0.0,71,0.00,,CLR,0.00,VWS V14.01,2013-08-01 06:46:00,
2013-08-01 01:56:00,82.6,72.2,29.92,North,9,0.0,0.0,71,0.00,,CLR,0.00,VWS V14.01,2013-08-01 06:56:00,
2013-08-01 02:06:00,82.6,72.2,29.92,North,9,0.0,0.0,71,0.00,,CLR,0.00,VWS V14.01,2013-08-01 07:06:00,
2013-08-01 02:16:00,82.6,72.2,29.92,North,9,0.0,0.0,71,0.00,,CLR,0.00,VWS V14.01,2013-08-01 07:16:00,
2013-08-01 02:26:00,82.6,72.2,29.92,North,9,0.0,0.0,71,0.00,,CLR,0.00,VWS V14.01,2013-08-01 07:26:00,
2013-08-01 02:36:00,82.6,72.2,29.92,North,9,0.0,0.0,71,0.00,,CLR,0.00,VWS V14.01,2013-08-01 07:36:00,
2013-08-01 02:41:00,82.6,72.2,29.92,North,9,0.0,0.0,71,0.00,,CLR,0.00,VWS V14.01,2013-08-01 07:41:00,
2013-08-01 02:46:00,82.6,72.2,29.92,North,9,0.0,0.0,71,0.00,,CLR,0.00,VWS V14.01,2013-08-01 07:46:00,
2013-08-01 02:56:00,82.6,72.2,29.92,North,9,0.0,0.0,71,0.00,,CLR,0.00,VWS V14.01,2013-08-01 07:56:00,
2013-08-01 03:11:00,82.6,72.2,29.92,North,9,0.0,0.0,71,0.00,,CLR,0.00,VWS V14.01,2013-08-01 08:11:00,
2013-08-01 03:21:00,82.6,72.2,29.92,North,9,0.0,0.0,71,0.00,,CLR,0.00,VWS V14.01,2013-08-01 08:21:00,
2013-08-01 03:26:00,82.6,72.2,29.92,North,9,0.0,0.0,71,0.00,,CLR,0.00,VWS V14.01,2013-08-01 08:26:00,
2013-08-01 03:41:00,82.6,72.2,29.92,North,9,0.0,0.0,71,0.00,,CLR,0.00,VWS V14.01,2013-08-01 08:41:00,
2013-08-01 03:46:00,82.6,72.2,29.92,North,9,0.0,0.0,71,0.00,,CLR,0.00,VWS V14.01,2013-08-01 08:46:00,
2013-08-01 03:56:00,82.6,72.2,29.92,North,9,0.0,0.0,71,0.00,,BKN041,0.00,VWS V14.01,2013-08-01 08:56:00,
2013-08-01 04:06:00,82.6,72.2,29.92,North,9,0.0,0.0,71,0.00,,BKN041,0.00,VWS V14.01,2013-08-01 09:06:00,
2013-08-01 04:11:00,82.6,72.2,29.92,North,9,0.0,0.0,71,0.00,,BKN041,0.00,VWS V14.01,2013-08-01 09:11:00,
2013-08-01 04:16:00,82.6,72.2,29.92,North,9,0.0,0.0,71,0.00,,BKN041,0.00,VWS V14.01,2013-08-01 09:16:00,
2013-08-01 04:26:00,82.6,72.2,29.92,North,9,0.0,0.0,71,0.00,,BKN041,0.00,VWS V14.01,2013-08-01 09:26:00,
2013-08-01 04:36:00,82.6,72.2,29.92,North,9,0.0,0.0,71,0.00,,CLR,0.00,VWS V14.01,2013-08-01 09:36:00,
2013-08-01 04:41:00,82.6,72.2,29.92,North,9,0.0,0.0,71,0.00,,CLR,0.00,VWS V14.01,2013-08-01 09:41:00,
2013-08-01 04:51:00,82.6,72.2,29.92,North,9,0.0,0.0,71,0.00,,CLR,0.00,VWS V14.01,2013-08-01 09:51:00,
2013-08-01 05:06:00,82.6,72.2,29.93,North,9,0.0,0.0,71,0.00,,CLR,0.00,VWS V14.01,2013-08-01 10:06:00,
2013-08-01 05:26:00,82.6,72.2,29.93,North,9,0.0,0.0,71,0.00,,CLR,0.00,VWS V14.01,2013-08-01 10:26:00,
2013-08-01 05:51:00,82.6,72.2,29.94,North,9,0.0,0.0,71,0.00,,CLR,0.00,VWS V14.01,2013-08-01 10:51:00,
2013-08-01 06:16:00,82.6,72.2,29.95,North,9,0.0,0.0,71,0.00,,CLR,0.00,VWS V14.01,2013-08-01 11:16:00,
2013-08-01 06:41:00,82.6,72.2,29.95,North,9,0.0,0.0,71,0.00,,FEW037,0.00,VWS V14.01,2013-08-01 11:41:00,
2013-08-01 06:56:00,82.6,72.2,29.96,North,9,0.0,0.0,71,0.00,,FEW037,0.00,VWS V14.01,2013-08-01 11:56:00,
2013-08-01 07:11:00,82.6,72.2,29.96,North,9,0.0,0.0,71,0.00,,FEW037,0.00,VWS V14.01,2013-08-01 12:11:00,
2013-08-01 07:26:00,82.6,72.2,29.96,North,9,0.0,0.0,71,0.00,,FEW037,0.00,VWS V14.01,2013-08-01 12:26:00,
2013-08-01 07:31:00,82.6,72.2,29.96,North,9,0.0,0.0,71,0.00,,FEW037,0.00,VWS V14.01,2013-08-01 12:31:00,
2013-08-01 08:16:00,82.6,72.2,29.98,North,9,0.0,0.0,71,0.00,,CLR,0.00,VWS V14.01,2013-08-01 13:16:00,
2013-08-01 08:26:00,82.6,72.2,29.98,North,9,0.0,0.0,71,0.00,,CLR,0.00,VWS V14.01,2013-08-01 13:26:00,
2013-08-01 08:56:00,82.6,72.2,29.99,North,9,0.0,0.0,71,0.00,,CLR,0.00,VWS V14.01,2013-08-01 13:56:00,
2013-08-01 09:06:00,82.6,72.2,29.99,North,9,0.0,0.0,71,0.00,,CLR,0.00,VWS V14.01,2013-08-01 14:06:00,
2013-08-01 09:16:00,82.6,72.2,29.99,North,9,0.0,0.0,71,0.00,,CLR,0.00,VWS V14.01,2013-08-01 14:16:00,
2013-08-01 09:21:00,82.6,72.2,29.99,North,9,0.0,0.0,71,0.00,,CLR,0.00,VWS V14.01,2013-08-01 14:21:00,
2013-08-01 09:36:00,82.6,72.2,29.99,North,9,0.0,0.0,71,0.00,,CLR,0.00,VWS V14.01,2013-08-01 14:36:00,
2013-08-01 09:41:00,82.6,72.2,29.99,North,9,0.0,0.0,71,0.00,,CLR,0.00,VWS V14.01,2013-08-01 14:41:00,
2013-08-01 09:46:00,82.6,72.2,29.99,North,9,0.0,0.0,71,0.00,,CLR,0.00,VWS V14.01,2013-08-01 14:46:00,
2013-08-01 09:51:00,82.6,72.2,29.99,North,9,0.0,0.0,71,0.00,,CLR,0.00,VWS V14.01,2013-08-01 14:51:00,
2013-08-01 10:16:00,82.6,72.2,29.99,North,9,0.0,0.0,71,0.00,,CLR,0.00,VWS V14.01,2013-08-01 15:16:00,
2013-08-01 10:26:00,82.6,72.2,29.99,North,9,0.0,0.0,71,0.00,,CLR,0.00,VWS V14.01,2013-08-01 15:26:00,
2013-08-01 10:36:00,82.6,72.2,29.99,North,9,0.0,0.0,71,0.00,,CLR,0.00,VWS V14.01,2013-08-01 15:36:00,
2013-08-01 10:41:00,82.6,72.2,29.99,North,9,0.0,0.0,71,0.00,,CLR,0.00,VWS V14.01,2013-08-01 15:41:00,
2013-08-01 10:51:00,82.6,72.2,29.99,North,9,0.0,0.0,71,0.00,,CLR,0.00,VWS V14.01,2013-08-01 15:51:00,
2013-08-01 10:56:00,82.6,72.2,29.99,North,9,0.0,0.0,71,0.00,,CLR,0.00,VWS V14.01,2013-08-01 15:56:00,
2013-08-01 11:26:00,82.6,72.2,29.99,North,9,0.0,0.0,71,0.00,,CLR,0.00,VWS V14.01,2013-08-01 16:26:00,
2013-08-01 11:41:00,82.6,72.2,29.99,North,9,0.0,0.0,71,0.00,,CLR,0.00,VWS V14.01,2013-08-01 16:41:00,
2013-08-01 11:46:00,82.6,72.2,29.99,North,9,0.0,0.0,71,0.00,,CLR,0.00,VWS V14.01,2013-08-01 16:46:00,
2013-08-01 11:51:00,82.6,72.2,29.99,North,9,0.0,0.0,71,0.00,,CLR,0.00,VWS V14.01,2013-08-01 16:51:00,
2013-08-01 12:11:00,82.6,72.2,29.98,North,9,0.0,0.0,71,0.00,,CLR,0.00,VWS V14.01,2013-08-01 17:11:00,
2013-08-01 12:36:00,82.6,72.2,29.98,North,9,0.0,0.0,71,0.00,,CLR,0.00,VWS V14.01,2013-08-01 17:36:00,
2013-08-01 12:41:00,82.6,72.2,29.98,North,9,0.0,0.0,71,0.00,,CLR,0.00,VWS V14.01,2013-08-01 17:41:00,
2013-08-01 12:46:00,82.6,72.2,29.97,North,9,0.0,0.0,71,0.00,,CLR,0.00,VWS V14.01,2013-08-01 17:46:00,
2013-08-01 12:51:00,83.0,67.2,29.97,ENE,76,7.0,10.0,59,0.00,,CLR,0.00,VWS V14.01,2013-08-01 17:51:00,
2013-08-01 12:56:00,83.6,67.3,29.97,North,360,5.0,8.0,58,0.00,,CLR,0.00,VWS V14.01,2013-08-01 17:56:00,
2013-08-01 13:01:00,83.8,67.0,29.97,North,11,5.0,7.0,57,0.00,,CLR,0.00,VWS V14.01,2013-08-01 18:01:00,
2013-08-01 13:16:00,83.0,66.7,29.97,North,355,2.0,7.0,58,0.00,,CLR,0.00,VWS V14.01,2013-08-01 18:16:00,
2013-08-01 13:26:00,84.0,66.6,29.97,North,355,3.0,9.0,56,0.00,,CLR,0.00,VWS V14.01,2013-08-01 18:26:00,
2013-08-01 13:41:00,83.2,66.4,29.97,NNE,13,2.0,8.0,57,0.00,,SCT032,0.00,VWS V14.01,2013-08-01 18:41:00,
2013-08-01 13:56:00,83.8,66.4,29.96,NNW,337,5.0,6.0,56,0.00,,SCT032,0.00,VWS V14.01,2013-08-01 18:56:00,
2013-08-01 14:21:00,84.3,65.9,29.96,WNW,300,8.0,9.0,54,0.00,,SCT032,0.00,VWS V14.01,2013-08-01 19:21:00,
2013-08-01 14:31:00,85.1,66.6,29.95,NNW,333,4.0,6.0,54,0.00,,SCT032,0.00,VWS V14.01,2013-08-01 19:31:00,
2013-08-01 14:41:00,84.9,65.3,29.95,NW,313,5.0,6.0,52,0.00,,SCT038,0.00,VWS V14.01,2013-08-01 19:41:00,
2013-08-01 14:46:00,85.3,67.3,29.95,NNW,343,4.0,7.0,55,0.00,,SCT038,0.00,VWS V14.01,2013-08-01 19:46:00,
2013-08-01 15:36:00,85.9,66.8,29.94,NW,317,4.0,5.0,53,0.00,,CLR,0.00,VWS V14.01,2013-08-01 20:36:00,
2013-08-01 15:46:00,85.7,65.5,29.93,NNW,333,3.0,10.0,51,0.00,,CLR,0.00,VWS V14.01,2013-08-01 20:46:00,
2013-08-01 15:51:00,85.9,65.1,29.93,NNW,344,5.0,9.0,50,0.00,,CLR,0.00,VWS V14.01,2013-08-01 20:51:00,
2013-08-01 16:01:00,86.1,67.0,29.93,NNW,338,3.0,7.0,53,0.00,,CLR,0.00,VWS V14.01,2013-08-01 21:01:00,
2013-08-01 16:26:00,86.1,66.4,29.93,NNW,329,2.0,6.0,52,0.00,,CLR,0.00,VWS V14.01,2013-08-01 21:26:00,
2013-08-01 16:36:00,86.7,65.9,29.93,NW,325,5.0,8.0,50,0.00,,SCT055,0.00,VWS V14.01,2013-08-01 21:36:00,
2013-08-01 16:46:00,86.7,66.4,29.93,NNE,32,5.0,8.0,51,0.00,,SCT055,0.00,VWS V14.01,2013-08-01 21:46:00,
2013-08-01 16:56:00,86.5,65.7,29.93,North,9,5.0,9.0,50,0.00,,SCT055,0.00,VWS V14.01,2013-08-01 21:56:00,
2013-08-01 17:06:00,86.3,66.1,29.92,NNW,338,3.0,5.0,51,0.00,,SCT055,0.00,VWS V14.01,2013-08-01 22:06:00,
2013-08-01 17:26:00,86.5,65.7,29.92,NE,35,0.0,7.0,50,0.00,,SCT055,0.00,VWS V14.01,2013-08-01 22:26:00,
2013-08-01 17:51:00,86.7,65.3,29.92,NNE,13,3.0,5.0,49,0.00,,CLR,0.00,VWS V14.01,2013-08-01 22:51:00,
2013-08-01 18:06:00,86.7,65.9,29.91,NNW,332,2.0,4.0,50,0.00,,CLR,0.00,VWS V14.01,2013-08-01 23:06:00,
2013-08-01 18:16:00,87.0,66.1,29.91,NE,46,2.0,3.0,50,0.00,,CLR,0.00,VWS V14.01,2013-08-01 23:16:00,
2013-08-01 18:26:00,86.1,65.9,29.91,NW,320,0.0,4.0,51,0.00,,CLR,0.00,VWS V14.01,2013-08-01 23:26:00,
2013-08-01 18:36:00,86.7,66.4,29.91,NE,43,0.0,3.0,51,0.00,,FEW080,0.00,VWS V14.01,2013-08-01 23:36:00,
2013-08-01 18:56:00,86.1,66.4,29.90,NE,52,0.0,2.0,52,0.00,,FEW080,0.00,VWS V14.01,2013-08-01 23:56:00,
2013-08-01 19:01:00,85.9,66.8,29.90,NE,52,0.0,3.0,53,0.00,,FEW080,0.00,VWS V14.01,2013-08-02 00:01:00,
2013-08-01 19:16:00,85.5,67.0,29.90,NE,52,0.0,0.0,54,0.00,,FEW080,0.00,VWS V14.01,2013-08-02 00:16:00,
2013-08-01 19:21:00,85.3,66.8,29.90,NE,52,0.0,0.0,54,0.00,,FEW040,0.00,VWS V14.01,2013-08-02 00:21:00,
2013-08-01 19:51:00,84.0,67.7,29.90,NE,52,0.0,0.0,58,0.00,,FEW040,0.00,VWS V14.01,2013-08-02 00:51:00,
2013-08-01 20:01:00,83.6,67.8,29.90,NE,52,0.0,0.0,59,0.00,,FEW040,0.00,VWS V14.01,2013-08-02 01:01:00,
2013-08-01 20:06:00,83.6,67.8,29.90,NE,52,0.0,0.0,59,0.00,,FEW040,0.00,VWS V14.01,2013-08-02 01:06:00,
2013-08-01 20:11:00,83.6,67.8,29.90,NE,52,0.0,0.0,59,0.00,,FEW040,0.00,VWS V14.01,2013-08-02 01:11:00,
2013-08-01 20:16:00,83.6,67.8,29.90,NE,52,0.0,0.0,59,0.00,,FEW040,0.00,VWS V14.01,2013-08-02 01:16:00,
2013-08-01 21:01:00,83.6,67.8,29.91,NE,52,0.0,0.0,59,0.00,,CLR,0.00,VWS V14.01,2013-08-02 02:01:00,
2013-08-01 21:11:00,83.6,67.8,29.91,NE,52,0.0,0.0,59,0.00,,CLR,0.00,VWS V14.01,2013-08-02 02:11:00,
2013-08-01 21:21:00,83.6,67.8,29.90,NE,52,0.0,0.0,59,0.00,,CLR,0.00,VWS V14.01,2013-08-02 02:21:00,
2013-08-01 21:36:00,83.6,67.8,29.91,NE,52,0.0,0.0,59,0.00,,CLR,0.00,VWS V14.01,2013-08-02 02:36:00,
2013-08-01 21:46:00,83.6,67.8,29.91,NE,52,0.0,0.0,59,0.00,,CLR,0.00,VWS V14.01,2013-08-02 02:46:00,
2013-08-01 21:56:00,83.6,67.8,29.91,NE,52,0.0,0.0,59,0.00,,CLR,0.00,VWS V14.01,2013-08-02 02:56:00,
2013-08-01 22:06:00,83.6,67.8,29.92,NE,52,0.0,0.0,59,0.00,,CLR,0.00,VWS V14.01,2013-08-02 03:06:00,
2013-08-01 22:16:00,83.6,67.8,29.92,NE,52,0.0,0.0,59,0.00,,CLR,0.00,VWS V14.01,2013-08-02 03:16:00,
2013-08-01 22:21:00,83.6,67.8,29.92,NE,52,0.0,0.0,59,0.00,,CLR,0.00,VWS V14.01,2013-08-02 03:21:00,
2013-08-01 22:36:00,83.6,67.8,29.92,NE,52,0.0,0.0,59,0.00,,CLR,0.00,VWS V14.01,2013-08-02 03:36:00,
2013-08-01 22:41:00,83.6,67.8,29.92,NE,52,0.0,0.0,59,0.00,,CLR,0.00,VWS V14.01,2013-08-02 03:41:00,
2013-08-01 22:46:00,83.6,67.8,29.93,NE,52,0.0,0.0,59,0.00,,CLR,0.00,VWS V14.01,2013-08-02 03:46:00,
2013-08-01 23:06:00,83.6,67.8,29.93,NE,52,0.0,0.0,59,0.00,,CLR,0.00,VWS V14.01,2013-08-02 04:06:00,
2013-08-01 23:11:00,83.6,67.8,29.93,NE,52,0.0,0.0,59,0.00,,CLR,0.00,VWS V14.01,2013-08-02 04:11:00,
2013-08-01 23:16:00,83.6,67.8,29.93,NE,52,0.0,0.0,59,0.00,,CLR,0.00,VWS V14.01,2013-08-02 04:16:00,
2013-08-01 23:21:00,83.6,67.8,29.93,NE,52,0.0,0.0,59,0.00,,CLR,0.00,VWS V14.01,2013-08-02 04:21:00,
2013-08-01 23:31:00,83.6,67.8,29.93,NE,52,0.0,0.0,59,0.00,,CLR,0.00,VWS V14.01,2013-08-02 04:31:00,
2013-08-01 23:36:00,83.6,67.8,29.93,NE,52,0.0,0.0,59,0.00,,SCT060,0.00,VWS V14.01,2013-08-02 04:36:00,
2013-08-01 23:41:00,83.6,67.8,29.93,NE,52,0.0,0.0,59,0.00,,SCT060,0.00,VWS V14.01,2013-08-02 04:41:00,
2013-08-01 23:46:00,83.6,67.8,29.92,NE,52,0.0,0.0,59,0.00,,SCT060,0.00,VWS V14.01,2013-08-02 04:46:00,
2013-08-01 23:51:00,83.6,67.8,29.92,NE,52,0.0,0.0,59,0.00,,SCT060,0.00,VWS V14.01,2013-08-02 04:51:00,
2013-08-01 23:56:00,83.6,67.8,29.92,NE,52,0.0,0.0,59,0.00,,SCT060,0.00,VWS V14.01,2013-08-02 04:56:00,